This is the latest recevied weather packets stored in our database for station/object WB6AHC-1. If no packets are shown the sender has not sent any weather packets the latest 10 day(s).
| Time | Temp. | Humidity | Pressure | Rain* | Wind** | Luminosity | Snow |
|---|---|---|---|---|---|---|---|
| 1777271725 | 11.11° C | 78% | - | 0 mm | 0 m/s | - | - |
| 1777270881 | 11.67° C | 75% | - | 0 mm | 0 m/s | - | - |
| 1777270037 | 12.22° C | 74% | - | 0 mm | 0 m/s | - | - |
| 1777269190 | 12.22° C | 72% | - | 0 mm | 0 m/s | - | - |
| 1777268346 | 12.78° C | 70% | - | 0 mm | 0 m/s | - | - |
| 1777267502 | 12.78° C | 69% | - | 0 mm | 0 m/s | - | - |
| 1777266655 | 13.33° C | 68% | - | 0 mm | 0 m/s | - | - |
| 1777265811 | 13.33° C | 67% | - | 0 mm | 0 m/s | - | - |
| 1777264967 | 13.33° C | 67% | - | 0 mm | 0 m/s | - | - |
| 1777264120 | 13.33° C | 66% | - | 0 mm | 0 m/s | - | - |
| 1777263276 | 13.89° C | 64% | - | 0 mm | 0 m/s | - | - |
| 1777262432 | 13.89° C | 64% | - | 0 mm | 0 m/s | - | - |
| 1777261585 | 13.89° C | 63% | - | 0 mm | 0 m/s | - | - |
| 1777260741 | 14.44° C | 63% | - | 0 mm | 0 m/s | - | - |
| 1777259897 | 14.44° C | 62% | - | 0 mm | 0 m/s | - | - |
| 1777259049 | 15° C | 60% | - | 0 mm | 0 m/s | - | - |
| 1777258205 | 15° C | 58% | - | 0 mm | 0 m/s | - | - |
| 1777257360 | 15.56° C | 57% | - | 0 mm | 0 m/s | - | - |
| 1777256514 | 15.56° C | 56% | - | 0 mm | 0 m/s | - | - |
| 1777255669 | 15.56° C | 55% | - | 0 mm | 0 m/s | - | - |
| 1777254825 | 15.56° C | 57% | - | 0 mm | 0 m/s | - | - |
| 1777253978 | 15.56° C | 56% | - | 0 mm | 0 m/s | - | - |
| 1777253134 | 16.11° C | 57% | - | 0 mm | 0 m/s | - | - |
| 1777252290 | 16.67° C | 56% | - | 0 mm | 0 m/s | - | - |
| 1777251443 | 16.11° C | 58% | - | 0 mm | 0 m/s | - | - |
* Rain latest hour (hover to see other rain measurements)
** Current wind speed in m/s (hover to see current wind gust speed)